Precipitable_Water
1.31 1.29 1.27 1.24 1.21 1.27 1.21 1.02 0.84 0.85 0.82 0.73 0.68 0.64 0.60 0.58 0.56 0.58 0.56 0.63 0.54 0.39 0.43 0.44 0.43 0.34 0.33 0.34 0.29 0.31 0.29 0.26 0.25 0.23 0.25 0.24 0.26 0.28 0.27 0.32 0.29 0.28 0.26 0.25 0.26 0.23 0.19 0.39 0.34 0.25 0.40 0.45 0.41 0.40
1.22 1.20 1.21 1.21 1.22 1.21 1.04 0.90 0.80 0.83 0.81 0.74 0.70 0.67 0.62 0.59 0.58 0.56 0.49 0.60 0.64 0.51 0.49 0.55 0.55 0.58 0.53 0.49 0.38 0.35 0.32 0.28 0.27 0.25 0.26 0.26 0.21 0.25 0.24 0.21 0.33 0.27 0.32 0.31 0.29 0.31 0.44 0.40 0.43 0.45 0.44 0.40 0.39 0.38
1.20 1.17 1.19 1.20 1.27 1.21 0.98 0.86 0.85 0.78 0.78 0.74 0.70 0.68 0.66 0.65 0.65 0.63 0.58 0.64 0.63 0.50 0.50 0.47 0.49 0.61 0.68 0.66 0.63 0.40 0.38 0.41 0.35 0.38 0.30 0.29 0.20 0.28 0.19 0.21 0.26 0.29 0.35 0.27 0.30 0.31 0.37 0.42 0.44 0.44 0.42 0.40 0.43 0.43
1.11 1.15 1.17 1.18 1.31 1.26 0.96 0.85 0.85 0.80 0.75 0.74 0.70 0.69 0.68 0.66 0.65 0.65 0.59 0.66 0.63 0.52 0.39 0.46 0.62 0.58 0.68 0.67 0.67 0.61 0.56 0.55 0.51 0.45 0.38 0.35 0.33 0.35 0.30 0.30 0.25 0.30 0.31 0.27 0.28 0.33 0.33 0.40 0.42 0.40 0.39 0.40 0.37 0.38
1.08 1.15 1.16 1.19 1.27 1.25 0.95 0.90 0.81 0.80 0.75 0.70 0.70 0.69 0.69 0.67 0.65 0.70 0.71 0.73 0.77 0.57 0.43 0.48 0.57 0.63 0.69 0.68 0.65 0.62 0.61 0.60 0.57 0.51 0.46 0.43 0.46 0.43 0.43 0.40 0.35 0.40 0.33 0.26 0.23 0.32 0.28 0.31 0.35 0.37 0.34 0.34 0.37 0.37
1.05 1.11 1.15 1.15 1.27 1.20 0.99 0.92 0.80 0.77 0.74 0.69 0.68 0.69 0.69 0.68 0.67 0.67 0.55 0.75 0.82 0.76 0.54 0.42 0.56 0.62 0.68 0.69 0.68 0.65 0.66 0.68 0.65 0.62 0.59 0.61 0.65 0.58 0.52 0.48 0.56 0.58 0.53 0.50 0.43 0.45 0.39 0.39 0.39 0.41 0.38 0.40 0.40 0.40
1.01 1.06 1.11 1.14 1.26 1.22 0.99 0.91 0.80 0.78 0.75 0.71 0.68 0.68 0.69 0.70 0.68 0.56 0.56 0.78 0.88 0.82 0.57 0.45 0.51 0.65 0.69 0.67 0.67 0.68 0.73 0.70 0.68 0.67 0.64 0.64 0.63 0.64 0.55 0.47 0.61 0.66 0.64 0.62 0.64 0.59 0.51 0.45 0.40 0.45 0.46 0.46 0.45 0.46
0.97 1.04 1.10 1.12 1.24 1.18 1.06 0.88 0.80 0.77 0.72 0.71 0.70 0.70 0.71 0.75 0.80 0.73 0.87 0.94 0.89 0.72 0.64 0.47 0.46 0.56 0.68 0.60 0.59 0.72 0.65 0.67 0.67 0.65 0.67 0.62 0.65 0.64 0.49 0.55 0.65 0.66 0.69 0.65 0.65 0.70 0.63 0.62 0.60 0.54 0.53 0.51 0.48 0.49
0.95 1.02 1.09 1.13 1.20 1.13 1.00 0.85 0.79 0.73 0.71 0.73 0.71 0.71 0.75 0.77 0.69 0.73 0.93 0.94 0.94 0.73 0.51 0.49 0.39 0.39 0.64 0.68 0.68 0.66 0.64 0.50 0.62 0.52 0.56 0.60 0.53 0.46 0.50 0.51 0.53 0.56 0.61 0.64 0.68 0.69 0.70 0.64 0.63 0.60 0.56 0.53 0.50 0.51
0.98 1.05 1.09 1.16 1.14 1.05 0.93 0.83 0.76 0.72 0.69 0.69 0.69 0.59 0.54 0.74 0.94 0.91 0.85 0.73 0.72 0.64 0.59 0.48 0.51 0.43 0.51 0.59 0.54 0.51 0.56 0.49 0.42 0.50 0.61 0.50 0.45 0.57 0.53 0.51 0.54 0.59 0.59 0.62 0.59 0.59 0.66 0.64 0.63 0.63 0.59 0.57 0.55 0.55
1.09 1.16 1.19 1.21 1.08 0.99 0.89 0.78 0.76 0.73 0.65 0.61 0.52 0.52 0.78 0.93 0.88 0.77 0.61 0.58 0.59 0.50 0.56 0.55 0.54 0.43 0.62 0.46 0.46 0.52 0.47 0.49 0.38 0.45 0.44 0.38 0.37 0.42 0.50 0.53 0.58 0.60 0.60 0.64 0.66 0.68 0.70 0.67 0.65 0.65 0.64 0.62 0.61 0.60
1.21 1.22 1.20 1.09 1.01 0.98 0.86 0.78 0.74 0.64 0.58 0.62 0.61 0.72 0.86 0.78 0.71 0.61 0.55 0.55 0.51 0.49 0.61 0.50 0.55 0.50 0.55 0.62 0.47 0.51 0.41 0.42 0.36 0.47 0.37 0.29 0.39 0.47 0.49 0.51 0.57 0.57 0.62 0.62 0.61 0.62 0.63 0.61 0.62 0.64 0.65 0.65 0.64 0.64
1.15 1.12 1.08 1.00 0.92 0.85 0.78 0.73 0.70 0.66 0.70 0.61 0.56 0.66 0.67 0.68 0.52 0.51 0.43 0.52 0.53 0.56 0.57 0.57 0.48 0.51 0.57 0.54 0.49 0.49 0.40 0.37 0.46 0.35 0.30 0.35 0.45 0.50 0.53 0.52 0.55 0.58 0.56 0.61 0.65 0.63 0.62 0.62 0.66 0.67 0.65 0.68 0.66 0.64
1.01 0.96 0.91 0.83 0.77 0.78 0.76 0.72 0.67 0.64 0.53 0.41 0.41 0.44 0.53 0.51 0.57 0.55 0.52 0.57 0.61 0.59 0.57 0.48 0.46 0.47 0.51 0.46 0.44 0.37 0.42 0.41 0.29 0.28 0.27 0.37 0.47 0.50 0.54 0.53 0.52 0.54 0.62 0.62 0.63 0.64 0.64 0.66 0.68 0.73 0.69 0.72 0.71 0.67
0.88 0.91 0.87 0.80 0.71 0.69 0.71 0.68 0.70 0.63 0.48 0.37 0.38 0.34 0.53 0.67 0.68 0.67 0.69 0.69 0.64 0.60 0.48 0.45 0.49 0.49 0.45 0.38 0.39 0.35 0.31 0.26 0.28 0.28 0.35 0.47 0.51 0.49 0.45 0.47 0.46 0.46 0.52 0.55 0.60 0.64 0.66 0.66 0.65 0.64 0.68 0.70 0.72 0.72
0.89 0.92 0.82 0.82 0.74 0.69 0.69 0.67 0.64 0.60 0.48 0.39 0.36 0.44 0.65 0.66 0.66 0.68 0.66 0.64 0.62 0.52 0.52 0.46 0.38 0.35 0.33 0.31 0.28 0.27 0.24 0.22 0.30 0.38 0.44 0.50 0.47 0.47 0.49 0.49 0.53 0.57 0.58 0.59 0.61 0.58 0.61 0.65 0.62 0.63 0.69 0.72 0.73 0.73
0.88 0.91 0.94 0.93 0.84 0.72 0.67 0.62 0.56 0.46 0.39 0.36 0.42 0.54 0.61 0.64 0.64 0.66 0.66 0.66 0.65 0.56 0.44 0.36 0.28 0.26 0.30 0.25 0.25 0.29 0.26 0.32 0.40 0.42 0.47 0.48 0.47 0.50 0.52 0.52 0.52 0.52 0.53 0.52 0.46 0.48 0.50 0.53 0.61 0.62 0.58 0.63 0.73 0.75
0.91 0.96 0.96 0.95 0.89 0.70 0.64 0.62 0.53 0.46 0.34 0.38 0.43 0.62 0.77 0.78 0.70 0.66 0.69 0.70 0.62 0.57 0.54 0.47 0.44 0.33 0.24 0.20 0.24 0.33 0.39 0.43 0.46 0.48 0.47 0.52 0.52 0.49 0.47 0.44 0.43 0.44 0.44 0.46 0.47 0.49 0.52 0.58 0.60 0.62 0.62 0.67 0.68 0.73
0.84 0.85 0.95 0.93 0.77 0.58 0.47 0.56 0.57 0.36 0.37 0.47 0.66 0.77 0.79 0.80 0.83 0.81 0.70 0.73 0.71 0.71 0.62 0.58 0.48 0.37 0.36 0.35 0.31 0.34 0.38 0.41 0.43 0.47 0.52 0.53 0.49 0.46 0.42 0.44 0.45 0.43 0.43 0.44 0.44 0.48 0.54 0.56 0.56 0.59 0.67 0.66 0.62 0.66
0.83 0.82 0.86 0.83 0.73 0.56 0.44 0.45 0.63 0.49 0.44 0.60 0.72 0.75 0.80 0.80 0.83 0.81 0.79 0.76 0.70 0.67 0.60 0.54 0.53 0.52 0.45 0.48 0.39 0.36 0.40 0.48 0.47 0.46 0.49 0.46 0.45 0.43 0.41 0.41 0.40 0.41 0.42 0.44 0.51 0.51 0.54 0.56 0.60 0.60 0.61 0.66 0.60 0.62
0.80 0.93 1.00 0.96 0.75 0.62 0.51 0.48 0.47 0.54 0.61 0.57 0.69 0.73 0.76 0.81 0.74 0.74 0.76 0.82 0.72 0.64 0.59 0.64 0.64 0.64 0.62 0.56 0.48 0.44 0.49 0.52 0.48 0.42 0.39 0.37 0.37 0.39 0.41 0.42 0.41 0.40 0.40 0.48 0.50 0.52 0.50 0.54 0.61 0.64 0.65 0.64 0.64 0.64
0.81 0.92 0.97 0.94 0.69 0.61 0.52 0.55 0.45 0.49 0.43 0.48 0.52 0.60 0.56 0.62 0.68 0.76 0.83 0.72 0.66 0.66 0.70 0.69 0.70 0.69 0.62 0.55 0.49 0.49 0.54 0.51 0.44 0.36 0.33 0.33 0.34 0.37 0.38 0.39 0.38 0.39 0.42 0.48 0.50 0.50 0.51 0.52 0.55 0.57 0.55 0.53 0.56 0.55
0.87 0.83 0.84 0.79 0.57 0.50 0.43 0.63 0.47 0.54 0.42 0.49 0.68 0.67 0.67 0.68 0.75 0.80 0.64 0.70 0.72 0.79 0.75 0.72 0.72 0.70 0.64 0.62 0.52 0.48 0.46 0.41 0.37 0.35 0.33 0.34 0.34 0.35 0.37 0.37 0.39 0.42 0.43 0.44 0.49 0.53 0.51 0.50 0.49 0.53 0.54 0.53 0.50 0.47
0.88 0.78 0.67 0.60 0.53 0.40 0.55 0.53 0.62 0.64 0.69 0.67 0.68 0.66 0.70 0.70 0.78 0.68 0.56 0.64 0.68 0.70 0.65 0.66 0.66 0.63 0.61 0.56 0.43 0.39 0.38 0.38 0.36 0.35 0.35 0.36 0.34 0.34 0.35 0.37 0.43 0.46 0.46 0.47 0.49 0.52 0.52 0.48 0.49 0.50 0.47 0.44 0.43 0.43
0.65 0.59 0.56 0.46 0.52 0.47 0.50 0.54 0.50 0.54 0.57 0.69 0.64 0.63 0.68 0.74 0.66 0.63 0.56 0.60 0.63 0.65 0.63 0.63 0.62 0.60 0.52 0.42 0.40 0.37 0.38 0.37 0.34 0.32 0.35 0.38 0.36 0.35 0.35 0.38 0.43 0.46 0.48 0.44 0.43 0.43 0.44 0.47 0.47 0.46 0.43 0.44 0.43 0.42
0.51 0.57 0.50 0.47 0.42 0.39 0.48 0.50 0.53 0.64 0.68 0.65 0.66 0.75 0.73 0.64 0.57 0.56 0.60 0.63 0.64 0.67 0.62 0.59 0.56 0.51 0.44 0.40 0.36 0.35 0.37 0.40 0.37 0.35 0.36 0.38 0.38 0.35 0.32 0.34 0.38 0.40 0.45 0.44 0.43 0.43 0.44 0.45 0.44 0.44 0.45 0.46 0.41 0.46
0.47 0.47 0.51 0.53 0.48 0.47 0.45 0.51 0.64 0.63 0.59 0.59 0.68 0.71 0.68 0.57 0.56 0.65 0.71 0.71 0.71 0.72 0.69 0.63 0.55 0.44 0.41 0.37 0.39 0.42 0.42 0.41 0.39 0.37 0.39 0.40 0.38 0.36 0.35 0.33 0.38 0.42 0.46 0.45 0.45 0.46 0.46 0.45 0.45 0.45 0.46 0.48 0.47 0.47
0.54 0.55 0.40 0.40 0.39 0.41 0.38 0.46 0.54 0.58 0.68 0.77 0.75 0.67 0.59 0.59 0.58 0.74 0.74 0.78 0.80 0.78 0.72 0.63 0.49 0.44 0.42 0.40 0.42 0.43 0.43 0.41 0.39 0.39 0.40 0.40 0.38 0.37 0.40 0.43 0.45 0.45 0.48 0.47 0.47 0.48 0.48 0.49 0.49 0.47 0.46 0.46 0.48 0.50
0.49 0.57 0.47 0.32 0.35 0.37 0.42 0.46 0.51 0.63 0.79 0.78 0.70 0.68 0.72 0.82 0.86 0.83 0.85 0.83 0.83 0.77 0.64 0.58 0.49 0.45 0.44 0.45 0.44 0.43 0.42 0.39 0.36 0.33 0.33 0.33 0.32 0.35 0.40 0.42 0.41 0.45 0.46 0.42 0.40 0.48 0.49 0.50 0.50 0.50 0.49 0.47 0.48 0.49
0.46 0.51 0.40 0.34 0.29 0.27 0.30 0.40 0.49 0.71 0.79 0.80 0.83 0.75 0.76 0.86 0.93 0.99 0.91 0.84 0.77 0.68 0.64 0.61 0.56 0.48 0.46 0.48 0.45 0.42 0.42 0.42 0.40 0.39 0.37 0.35 0.35 0.38 0.40 0.40 0.41 0.43 0.41 0.42 0.44 0.45 0.46 0.51 0.51 0.53 0.50 0.49 0.48 0.48
0.55 0.48 0.41 0.36 0.31 0.31 0.33 0.40 0.52 0.60 0.64 0.61 0.65 0.67 0.71 0.84 0.95 0.97 0.92 0.86 0.81 0.75 0.71 0.66 0.62 0.60 0.59 0.61 0.58 0.51 0.46 0.48 0.44 0.41 0.42 0.41 0.40 0.39 0.40 0.40 0.40 0.41 0.42 0.43 0.44 0.46 0.47 0.48 0.48 0.49 0.48 0.47 0.48 0.47
0.48 0.40 0.33 0.26 0.28 0.38 0.48 0.52 0.55 0.56 0.63 0.68 0.73 0.85 0.86 0.85 0.81 0.89 0.94 0.92 0.85 0.77 0.72 0.74 0.68 0.63 0.65 0.68 0.64 0.60 0.56 0.54 0.52 0.48 0.41 0.40 0.41 0.41 0.43 0.42 0.42 0.42 0.42 0.42 0.43 0.44 0.45 0.47 0.47 0.48 0.47 0.47 0.48 0.48
0.37 0.34 0.32 0.30 0.30 0.35 0.47 0.50 0.51 0.57 0.67 0.73 0.80 0.84 0.85 0.83 0.80 0.94 0.97 0.97 0.90 0.83 0.76 0.76 0.77 0.80 0.77 0.76 0.71 0.69 0.60 0.55 0.55 0.53 0.49 0.43 0.42 0.42 0.43 0.43 0.44 0.44 0.43 0.42 0.42 0.43 0.44 0.45 0.47 0.49 0.49 0.47 0.48 0.48
Wind_Speed
29 28 27 27 23 17 13 11 9 7 5 4 3 2 3 5 7 6 5 5 4 3 2 0 1 3 2 2 2 3 2 2 2 2 2 2 4 6 8 8 11 12 13 14 15 16 18 16 16 19 15 16 16 17
28 27 26 24 18 14 11 9 7 6 5 4 3 2 3 4 5 5 4 5 4 3 3 2 2 3 3 2 1 1 2 1 1 1 2 2 3 4 5 6 9 11 12 13 15 13 14 17 17 18 18 18 19 19
28 26 24 20 15 12 9 7 7 5 4 4 2 2 3 3 5 5 5 6 5 4 3 3 3 4 5 5 5 5 5 5 5 5 5 5 5 5 6 6 6 8 8 11 12 15 16 17 17 19 19 19 19 19
26 23 20 18 13 10 7 6 6 6 5 4 3 2 3 3 5 5 5 6 5 3 4 4 5 5 5 6 6 7 5 6 7 9 9 9 9 9 9 8 10 8 8 10 11 13 12 17 18 17 17 17 18 18
22 20 18 15 11 8 6 6 6 5 4 4 4 3 3 4 5 5 5 4 4 4 5 6 5 5 6 6 7 7 7 8 9 10 11 11 10 11 11 11 13 13 14 13 12 10 13 11 16 16 16 16 16 16
19 17 14 13 9 7 5 4 5 5 4 4 3 3 4 4 5 4 3 4 5 5 6 5 4 5 7 7 8 9 10 11 12 12 13 13 12 13 12 13 13 14 15 17 15 14 15 14 14 16 17 17 17 17
17 15 14 11 9 7 7 5 5 4 4 3 2 3 3 3 3 3 4 4 5 5 5 4 4 7 8 7 8 9 10 12 13 13 14 14 13 13 15 15 15 17 19 20 19 17 18 19 18 19 18 18 18 18
15 14 12 10 7 6 6 5 4 4 3 2 2 2 2 1 2 3 3 3 3 5 5 6 6 7 8 8 8 9 9 10 10 10 10 12 14 13 12 15 17 17 18 20 22 22 22 20 20 21 20 20 20 19
14 13 12 9 7 7 6 5 4 3 3 2 1 1 0 1 2 2 3 3 4 6 6 7 9 9 9 9 8 8 8 7 6 6 5 5 4 8 10 13 14 15 16 18 19 22 25 23 23 21 21 22 21 20
13 12 10 8 8 6 6 5 4 3 3 1 1 1 1 1 1 1 2 3 5 6 7 8 10 9 10 9 8 7 6 5 5 4 4 5 6 9 12 12 14 15 17 17 18 19 22 24 23 23 23 22 21 21
11 8 7 7 6 6 5 5 4 4 3 2 1 0 0 1 0 2 3 6 6 6 7 9 10 11 10 9 9 8 7 5 5 4 6 5 6 9 11 12 12 10 9 9 11 11 15 18 20 21 21 22 22 21
3 3 6 6 5 4 4 4 5 5 3 2 1 1 2 1 1 2 4 5 6 8 8 10 10 11 9 9 8 7 7 6 5 6 6 6 7 10 11 11 10 8 8 9 11 12 14 15 17 18 19 20 21 22
5 5 4 5 4 2 1 5 8 6 3 1 2 3 1 1 1 4 5 5 7 8 9 9 10 10 8 9 8 7 6 6 7 6 7 8 10 11 12 12 11 9 10 10 11 12 13 15 16 19 20 21 21 22
3 2 3 3 3 4 6 7 6 4 2 2 3 2 2 1 2 4 7 8 8 10 10 11 9 8 8 8 9 8 7 6 6 7 8 11 12 14 14 14 14 14 14 14 14 15 17 18 20 21 20 23 23 23
2 0 1 3 4 5 6 6 4 2 2 3 3 2 3 1 3 5 6 8 8 10 11 10 8 7 8 8 8 9 7 7 8 8 12 12 14 15 15 15 16 16 16 17 18 18 19 21 22 23 24 25 26 25
1 1 1 3 4 5 6 5 4 3 3 3 4 2 2 2 2 4 6 7 9 11 12 9 9 8 8 9 9 8 8 8 10 12 13 14 14 15 15 16 15 15 15 16 18 20 23 24 23 24 25 27 28 27
2 2 3 3 3 4 5 5 4 4 4 4 4 4 2 2 4 4 6 7 8 10 12 9 9 10 10 8 9 9 9 11 12 13 12 13 14 15 15 16 16 16 17 18 21 22 23 25 24 22 21 21 22 24
3 3 4 4 4 4 5 6 4 4 5 5 5 4 4 3 3 4 5 6 8 10 10 10 9 9 10 10 10 11 11 11 11 12 12 13 14 15 15 16 16 15 16 17 18 19 18 17 17 18 16 14 16 19
4 4 5 6 5 5 5 5 5 4 5 5 5 5 5 4 4 5 5 6 8 9 10 9 9 10 11 11 12 12 12 11 12 12 12 12 13 14 15 15 15 15 16 17 17 15 13 12 11 12 11 11 10 13
4 4 5 6 7 5 5 5 5 5 5 4 6 6 5 5 4 6 7 6 7 9 9 9 9 10 11 12 12 11 11 11 11 12 11 11 12 13 14 14 16 15 16 17 14 14 14 12 7 0 4 8 7 10
4 3 3 5 6 7 6 6 6 5 5 6 6 6 5 5 7 7 7 6 7 9 9 10 11 10 10 11 11 11 11 11 12 12 11 10 11 11 12 13 15 16 15 16 14 15 16 13 9 7 6 6 5 4
5 5 5 6 6 6 7 7 5 5 6 6 6 6 6 6 6 6 6 7 8 9 10 11 10 9 9 9 10 10 10 11 11 10 10 9 9 10 11 13 14 14 13 12 13 13 13 12 10 9 8 5 2 1
6 6 6 7 7 6 6 6 6 5 5 4 4 4 4 4 4 5 6 6 7 8 9 9 8 8 7 8 9 9 9 9 9 9 9 9 9 10 11 12 12 11 12 12 11 11 12 11 9 7 6 3 3 4
7 6 7 7 8 6 7 7 6 5 5 6 5 5 5 4 4 6 6 6 6 7 7 7 6 7 6 7 8 8 8 8 9 8 8 8 8 9 10 11 11 11 12 11 10 11 11 10 9 8 7 6 6 5
7 7 7 8 8 7 7 7 6 6 5 5 5 5 4 4 6 6 7 5 6 7 7 6 6 7 7 7 7 7 7 7 8 8 7 7 7 8 9 9 9 10 11 11 11 11 11 10 10 10 9 9 8 7
7 8 8 8 8 8 7 6 5 5 5 5 5 4 5 6 7 6 5 5 6 7 7 6 6 7 7 7 6 6 6 6 7 7 7 6 6 7 7 7 7 8 9 9 10 10 11 11 11 11 10 9 9 8
7 7 8 9 7 7 7 7 7 6 6 5 5 5 6 6 6 5 5 6 7 6 6 6 7 7 6 6 6 5 5 5 7 7 6 6 6 6 6 6 6 7 7 8 9 9 10 11 11 11 11 10 9 9
8 7 9 8 8 8 8 7 6 5 4 5 5 5 6 5 5 5 7 7 7 6 6 6 6 6 6 6 5 4 4 5 5 6 6 6 6 6 5 5 5 6 6 7 8 9 9 11 12 12 12 11 10 9
8 9 8 8 8 7 7 7 7 6 6 6 6 7 8 9 9 9 9 9 8 7 6 6 6 5 5 5 5 5 5 5 4 4 5 5 5 5 4 4 4 4 5 6 7 8 9 11 12 14 13 13 12 11
10 10 9 8 8 7 6 7 7 7 7 9 10 11 12 12 11 11 11 10 9 9 8 8 7 6 6 6 6 6 6 7 6 6 6 7 6 4 4 3 3 3 3 5 5 7 9 10 12 13 14 14 13 13
8 9 8 8 7 6 7 7 8 10 10 12 13 14 14 13 12 12 12 12 12 12 11 10 9 8 7 8 7 7 8 8 8 7 7 7 6 4 4 3 3 3 3 3 4 6 8 10 11 13 13 13 13 12
9 10 8 6 6 5 5 6 7 8 9 10 11 12 12 12 12 11 13 14 14 14 13 12 11 10 10 10 10 11 10 8 8 8 8 7 6 6 5 5 4 3 3 4 4 6 7 9 10 12 12 11 12 11
7 8 7 6 5 5 6 7 8 9 10 10 10 11 11 11 12 13 14 14 14 13 12 11 12 12 12 12 12 10 10 10 10 9 9 9 8 7 6 6 6 6 5 5 5 6 7 8 9 10 11 11 10 10
Wind_Direction
324 324 325 327 329 327 321 322 320 316 317 313 292 284 319 345 358 5 10 11 5 1 35 358 37 44 60 46 56 89 116 120 146 145 197 204 223 221 235 236 226 224 224 230 233 236 238 224 221 226 223 220 222 227
320 321 323 326 326 326 322 320 318 311 308 302 287 285 307 329 347 353 352 350 346 336 346 305 300 308 319 317 297 251 325 259 279 214 219 204 210 210 221 233 230 235 239 239 237 240 237 228 234 226 229 232 235 239
316 318 321 321 317 318 317 316 316 303 298 296 283 283 301 319 337 344 340 343 333 316 311 295 281 289 284 281 275 280 273 270 259 268 243 246 244 231 232 238 241 236 237 241 245 232 234 229 230 231 233 236 237 239
312 315 317 316 310 306 303 309 312 301 290 289 277 274 297 312 329 335 335 339 338 329 316 328 306 306 296 283 274 281 274 274 264 260 259 255 254 249 249 252 244 247 230 242 248 246 238 234 234 229 229 229 232 238
311 312 314 312 303 295 291 296 304 303 295 282 271 271 292 306 322 329 336 350 360 341 338 341 318 311 305 291 279 274 271 276 275 269 261 258 255 250 252 254 253 243 245 239 245 250 235 236 224 224 224 227 233 237
310 309 310 308 291 279 279 299 307 301 295 279 261 272 290 301 317 315 308 332 345 341 326 331 335 335 328 293 286 281 279 282 279 275 270 263 259 256 254 256 260 255 255 246 252 253 240 239 230 225 230 234 238 243
306 303 303 302 284 258 253 287 299 301 292 279 259 283 292 304 321 327 335 330 333 343 339 333 327 334 335 323 306 295 289 290 287 282 271 260 259 260 259 260 258 271 264 254 247 247 244 238 239 236 238 240 242 247
299 297 297 292 266 243 241 267 292 294 284 262 281 298 292 290 326 334 344 332 337 347 342 336 337 326 330 326 321 318 304 300 300 290 285 273 256 247 266 266 268 268 261 257 250 247 250 245 243 239 241 241 245 250
294 290 289 275 242 234 241 255 273 278 265 242 294 289 243 319 339 27 20 25 2 348 347 342 340 340 331 331 328 325 321 316 311 302 300 287 279 255 270 283 282 278 264 261 254 250 246 245 239 240 242 243 246 252
293 287 275 254 222 234 232 248 256 250 231 210 248 257 212 342 23 358 359 353 344 351 347 343 343 340 334 332 329 328 322 318 312 307 306 298 285 279 300 299 295 286 278 263 255 250 243 239 241 240 240 242 246 251
291 273 251 214 211 211 223 238 236 214 193 193 203 175 357 140 318 332 342 336 341 337 339 339 338 338 342 335 334 329 325 317 313 310 310 309 303 318 312 307 306 295 285 255 247 246 235 235 236 240 239 240 245 249
273 232 183 184 193 196 234 234 200 185 173 173 154 157 145 137 360 328 340 340 336 344 339 340 342 340 342 341 337 336 329 321 325 316 313 308 310 320 319 319 316 300 281 263 254 256 248 242 242 244 247 247 247 250
106 130 155 166 184 214 200 169 164 159 160 173 165 156 144 122 8 339 349 347 341 342 339 339 342 345 348 346 339 335 325 324 315 309 307 299 321 320 315 312 305 290 280 276 266 256 250 251 251 254 254 255 253 253
85 113 146 157 157 152 149 149 148 156 172 181 177 183 208 156 331 5 2 353 354 347 346 343 349 346 345 347 345 339 342 333 322 314 309 320 321 316 315 309 303 293 281 274 272 267 266 264 263 259 260 253 254 254
10 46 179 198 196 181 176 176 183 205 209 197 193 200 201 223 10 3 355 355 357 357 355 355 356 347 354 347 348 347 338 333 332 327 327 331 324 319 318 314 308 300 289 281 278 274 271 273 270 267 265 261 255 253
296 183 109 140 162 176 185 193 209 220 215 205 206 209 204 246 332 358 354 358 2 3 4 2 4 357 353 351 347 344 341 337 337 334 333 329 328 326 323 321 317 313 305 295 288 285 280 278 278 271 268 263 256 248
255 246 209 196 194 197 198 204 209 215 211 204 207 205 235 265 319 339 355 2 4 -0 4 7 2 3 357 350 348 347 341 336 337 335 339 337 334 332 329 326 323 317 312 307 301 294 287 279 273 272 271 264 255 236
273 232 228 221 222 212 209 207 213 221 220 220 219 213 231 282 299 316 337 355 355 355 359 2 359 355 353 349 346 342 337 337 340 341 341 342 343 344 340 337 335 331 326 323 317 311 304 294 273 266 263 257 242 237
262 258 235 225 224 217 211 208 218 230 224 225 231 241 248 272 284 296 310 325 333 344 348 347 347 348 350 346 339 341 342 341 341 342 343 345 346 348 349 351 350 348 345 342 339 338 335 321 293 260 245 240 244 237
263 259 245 226 210 214 216 215 224 236 231 228 234 246 256 271 290 293 287 306 321 333 335 335 332 336 340 347 346 346 347 346 343 341 345 348 350 355 359 1 1 359 359 359 1 3 2 358 359 356 238 208 212 199
264 240 223 212 210 220 228 223 231 237 247 241 246 253 265 264 285 286 290 298 305 323 325 327 328 337 343 347 348 349 350 347 347 346 348 350 355 359 3 6 7 9 11 23 33 27 28 39 47 69 100 135 150 172
257 249 240 223 222 223 231 225 237 248 246 251 255 256 266 279 282 290 305 291 303 308 318 328 327 329 334 339 346 348 353 355 358 359 360 2 4 5 7 8 9 15 20 24 26 33 38 47 56 65 78 96 101 173
246 251 236 228 223 224 229 220 230 229 233 228 240 255 265 279 292 305 305 307 311 324 327 333 335 330 338 346 350 352 354 356 359 2 5 9 11 11 11 12 16 22 26 26 30 35 37 38 42 47 49 37 352 308
236 244 233 226 216 226 218 220 224 235 237 240 255 267 268 280 290 302 304 311 323 330 333 341 344 347 342 342 345 349 352 357 1 3 6 11 13 15 16 20 27 29 28 29 37 39 36 35 33 36 30 17 5 358
238 236 221 225 218 218 220 218 223 232 247 247 266 267 268 280 291 297 296 302 314 323 327 327 334 339 339 341 345 350 351 355 359 3 4 7 14 16 19 25 30 28 27 36 37 35 32 28 29 24 18 19 18 16
229 220 214 214 210 214 217 225 223 236 253 261 264 278 279 283 297 292 294 301 310 315 314 313 319 331 336 337 340 341 345 353 360 1 3 2 4 7 13 19 25 26 27 30 31 32 31 30 26 23 24 26 23 16
225 220 214 213 218 221 227 231 243 251 256 261 271 292 297 292 292 294 296 303 316 316 315 316 316 317 328 333 338 344 350 354 357 1 5 4 5 5 7 11 20 26 26 26 28 27 27 24 21 18 16 15 13 12
226 220 215 209 215 222 235 238 236 244 243 264 282 298 315 310 311 307 305 297 306 305 306 314 319 320 324 329 330 338 343 348 358 3 6 3 359 1 7 13 19 21 22 22 21 20 19 16 15 12 10 7 2 0
218 210 212 219 218 221 225 230 234 238 247 269 291 303 302 304 297 291 297 295 289 282 291 302 308 311 322 328 322 323 328 323 326 334 334 343 347 345 346 356 3 4 12 16 14 15 16 15 14 12 10 8 6 0
216 205 209 212 215 224 231 234 248 255 267 279 290 297 299 300 297 293 288 289 272 269 277 285 289 286 288 306 306 306 310 308 304 316 322 325 326 328 328 332 342 353 1 6 16 19 15 11 11 9 9 8 8 8
196 197 206 217 230 238 249 258 265 269 275 284 291 294 296 297 296 297 291 283 277 269 269 272 275 275 277 291 288 299 303 303 295 299 312 320 315 310 305 309 317 328 338 348 354 357 360 1 3 5 7 10 13 14
195 202 205 213 232 246 264 271 277 277 283 293 299 301 299 299 296 301 304 295 281 264 263 268 266 270 275 287 284 291 301 301 304 301 293 297 301 295 285 290 294 288 308 321 333 341 349 353 358 2 4 5 8 11
190 199 214 238 246 255 264 280 286 289 288 297 303 312 310 307 308 310 309 307 296 270 260 265 270 273 280 284 290 292 291 293 303 303 299 288 279 279 277 275 276 284 287 299 310 321 330 336 344 353 358 359 2 6